[Iaude] MPEC G55: 2024 FD5 [a=2.02,e=0.66,i=3.3,H=25.8]

mpec at cfa.harvard.edu mpec at cfa.harvard.edu
Fri Apr 5 08:53:18 EDT 2024


M.P.E.C. 2024-G55                                 Issued 2024 April 5, 12:51 UT

     The Minor Planet Electronic Circulars contain information on unusual
         minor planets, routine data on comets and natural satellites,
         and occasional editorial announcements.  They are published
    on behalf of Division F of the International Astronomical Union by the
          Minor Planet Center, Smithsonian Astrophysical Observatory,
                          Cambridge, MA 02138, U.S.A.
			  
             Prepared using the Tamkin Foundation Computer Network

                              MPC at CFA.HARVARD.EDU
            URL https://www.minorplanetcenter.net/    ISSN 1523-6714

                                    2024 FD5                                    


Observations:
     K24F05D* C2024 03 30.33917611 55 29.487+06 36 09.41         21.21wXEG055F52
     K24F05D  C2024 03 30.35102111 55 32.950+06 35 46.42         21.37wXEG055F52
     K24F05D  C2024 03 30.36289011 55 36.403+06 35 22.83         21.22wXEG055F52
     K24F05D  C2024 03 30.48498011 56 11.161+06 31 23.05         21.11GVEG055F51
     K24F05D  C2024 03 30.48579911 56 11.392+06 31 21.43         21.33GVEG055F51
     K24F05D KC2024 03 31.18391711 59 43.732+06 10 12.40         20.85GVEG055I52
     K24F05D KC2024 03 31.18778311 59 44.668+06 10 06.35         21.12GVEG055I52
     K24F05D KC2024 03 31.19165111 59 45.604+06 10 00.08         21.25GVEG055I52
     K24F05D |C2024 03 31.19359011 59 42.380+06 11 37.10         21.2 GVEG055807
     K24F05D |C2024 03 31.20026011 59 43.970+06 11 26.30         21.5 GVEG055807
     K24F05D |C2024 03 31.20679011 59 45.570+06 11 15.50         21.3 GVEG055807
     K24F05D 7C2024 04 04.99877912 13 55.258+04 40 09.04               VEG055Z84
     K24F05D 7C2024 04 05.04830712 14 00.024+04 39 30.10         22.6 GVEG055Z84
     K24F05D 3C2024 04 05.47402312 14 47.798+04 34 26.33         22.53GVEG055T14
     K24F05D 3C2024 04 05.47523312 14 47.903+04 34 25.45         22.34GVEG055T14
     K24F05D 3C2024 04 05.47649712 14 48.013+04 34 24.47         22.93GVEG055T14

Observer details:
807 Cerro Tololo Observatory, La Serena.  Observers T. Linder, R. Holmes.
    0.61-m f/6.8 Ritchey-Chretien + CCD.
F51 Pan-STARRS 1, Haleakala.  Observers J. Herman, T. Lowe, P. Minguez, A.
    Schultz, I. Smith.  Measurers K. Chambers, T. de Boer, J. Fairlamb, H.
    Gao, M. Huber, C.-C. Lin, E. Magnier, Y. Ramanjooloo, R. Wainscoat, R.
    Weryk.  1.8-m Ritchey-Chretien + CCD.
F52 Pan-STARRS 2, Haleakala.  Observers J. Herman, T. Lowe, P. Minguez, A.
    Schultz, I. Smith.  Measurers K. Chambers, T. de Boer, J. Fairlamb, H.
    Gao, M. Huber, C.-C. Lin, E. Magnier, Y. Ramanjooloo, R. Wainscoat, R.
    Weryk.  1.8-m Ritchey-Chretien + CCD.
I52 Steward Observatory, Mt. Lemmon Station.  Observers T. Beuden, H.
    Groeller.  Measurers T. Beuden, V. F. Carvajal, D. Fay, J. B. Fazekas, D.
    C. Fuls, A. R. Gibbs, A. D. Grauer, H. Groeller, J. K. Hogan, R. A.
    Kowalski, S. M. Larson, G. J. Leonard, D. Rankin, R. L. Seaman, F. C.
    Shelly, K. W. Wierzchos.  1.0-m prime focus + CCD.
T14 Canada-France-Hawaii Telescope, Maunakea.  Observers R. Wainscoat, L.
    Wells, T. Burdullis.  Measurers R. Weryk, R. Wainscoat.  3.6-m f/4.1
    reflector + CCD.
Z84 Calar Alto-Schmidt.  Observers F. Ocana, R. Kresken, M. Micheli, L.
    Conversi.  Measurers F. Ocana, M. Micheli.  0.8-m f/3 Schmidt + CCD.

Orbital elements:
2024 FD5                                                 Earth MOID = 0.0005 AU
Epoch 2024 Mar. 31.0 TT = JDT 2460400.5                 Veres                   
M  18.47984              (2000.0)            P               Q                  
n   0.34293708     Peri.  283.50535     -0.25646988     -0.96655125             
a   2.0214349      Node   181.35765     +0.90771191     -0.24036828             
e   0.6551885      Incl.    3.32421     +0.33208778     -0.08945266             
P   2.87           H   25.83          G   0.15           U   8                  
Residuals in seconds of arc
240330 F52  0.1-  0.1-    240331 I52  0.0   0.0     240405 Z84  0.5-  0.1-
240330 F52  0.1-  0.2+    240331 I52  0.1-  0.1+    240405 T14  0.0   0.0
240330 F52  0.0   0.1-    240331 807  0.5-  0.3-    240405 T14  0.0   0.0
240330 F51  0.0   0.0     240331 807  0.3-  0.1+    240405 T14  0.0   0.0
240330 F51  0.0   0.0     240331 807  0.5+  0.2+
240331 I52  0.1+  0.2-    240404 Z84  0.2-  0.2+

Ephemeris:
2024 FD5                 a,e,i = 2.02, 0.66, 3                   q = 0.6970
Date    TT    R. A. (2000) Decl.     Delta      r    Elong.  Phase     V
2024 03 06    00 54 43.0 -00 23 21   0.1758  0.8400    27.4   147.0    29.6
...
2024 03 21    03 31 19.1 +14 11 56   0.02318 0.9825    53.6   125.3    22.9
...
2024 03 29    11 46 34.0 +07 29 24   0.06879 1.0648   164.5    14.5    21.0
...
2024 04 04    12 11 50.2 +04 54 29   0.1312  1.1275   165.3    13.0    22.4
2024 04 05    12 13 55.7 +04 40 42   0.1419  1.1380   164.9    13.3    22.6
2024 04 06    12 15 45.0 +04 28 27   0.1527  1.1485   164.4    13.5    22.8
...
2024 04 12    12 23 20.2 +03 33 32   0.2189  1.2114   160.9    15.7    23.8
...
2024 04 20    12 29 43.6 +02 40 03   0.3124  1.2947   155.1    19.0    24.8
...
2024 05 05    12 39 43.1 +01 08 09   0.5055  1.4473   143.7    24.4    26.3

M. P. C. Staff               (C) Copyright 2024 MPC           M.P.E.C. 2024-G55





More information about the Iaude mailing list